TimeEDT,TemperatureF,Dew PointF,Humidity,Sea Level PressureIn,VisibilityMPH,Wind Direction,Wind SpeedMPH,Gust SpeedMPH,PrecipitationIn,Events,Conditions,WindDirDegrees,DateUTC
12:53 AM,72.0,70.0,93,29.97,8.0,NE,3.5,-,0.03,Rain,Light Rain,50,2013-05-02 04:53:00
1:43 AM,71.6,69.8,94,29.93,9.0,SE,8.1,-,0.01,Rain,Light Rain,140,2013-05-02 05:43:00
1:53 AM,70.0,68.0,93,29.93,7.0,ESE,8.1,-,0.01,Rain,Light Rain,120,2013-05-02 05:53:00
2:32 AM,69.8,68.0,94,29.92,10.0,SE,8.1,-,0.03,,Overcast,130,2013-05-02 06:32:00
2:46 AM,69.8,69.8,100,29.91,10.0,East,6.9,-,0.03,,Overcast,80,2013-05-02 06:46:00
2:53 AM,71.1,70.0,96,29.91,10.0,ENE,5.8,-,0.03,,Overcast,70,2013-05-02 06:53:00
3:53 AM,71.1,69.1,93,29.91,10.0,ENE,8.1,-,N/A,,Overcast,60,2013-05-02 07:53:00
4:46 AM,69.8,68.0,94,29.92,4.0,WSW,19.6,35.7,0.00,Rain-Thunderstorm,Light Thunderstorms and Rain,250,2013-05-02 08:46:00
4:48 AM,69.8,68.0,94,29.93,1.8,WSW,21.9,35.7,0.03,Rain-Thunderstorm,Heavy Thunderstorms and Rain,250,2013-05-02 08:48:00
4:53 AM,69.1,68.0,96,29.91,0.8,SSE,9.2,35.7,0.34,Rain-Thunderstorm,Heavy Thunderstorms and Rain,160,2013-05-02 08:53:00
4:59 AM,68.0,68.0,100,29.91,1.0,East,19.6,24.2,0.24,Rain-Thunderstorm,Heavy Thunderstorms and Rain,90,2013-05-02 08:59:00
5:14 AM,68.0,68.0,100,29.91,3.0,ENE,12.7,20.7,0.62,Rain,Light Rain,70,2013-05-02 09:14:00
5:22 AM,68.0,68.0,100,29.92,6.0,Calm,Calm,-,0.62,Rain,Light Rain,0,2013-05-02 09:22:00
5:29 AM,68.0,68.0,100,29.92,9.0,WNW,8.1,-,0.62,Rain,Light Rain,290,2013-05-02 09:29:00
5:36 AM,68.0,68.0,100,29.91,5.0,NNW,9.2,-,0.64,Rain,Rain,340,2013-05-02 09:36:00
5:43 AM,68.0,68.0,100,29.91,5.0,North,6.9,-,0.67,Rain-Thunderstorm,Rain,10,2013-05-02 09:43:00
5:53 AM,68.0,66.9,96,29.91,5.0,Variable,6.9,16.1,0.69,Rain-Thunderstorm,Light Rain,0,2013-05-02 09:53:00
6:00 AM,68.0,66.2,94,29.93,4.0,Variable,5.8,-,0.01,Rain-Thunderstorm,Thunderstorms and Rain,0,2013-05-02 10:00:00
6:05 AM,68.0,66.2,94,29.93,1.2,Variable,3.5,-,0.06,Rain-Thunderstorm,Heavy Thunderstorms and Rain,0,2013-05-02 10:05:00
6:23 AM,68.0,68.0,100,29.93,2.0,NW,11.5,17.3,0.54,Rain-Thunderstorm,Heavy Thunderstorms and Rain,320,2013-05-02 10:23:00
6:29 AM,68.0,68.0,100,29.92,3.0,North,10.4,-,0.57,Rain-Thunderstorm,Light Thunderstorms and Rain,360,2013-05-02 10:29:00
6:53 AM,68.0,66.9,96,29.91,10.0,North,8.1,-,0.58,Thunderstorm,Overcast,10,2013-05-02 10:53:00
7:00 AM,68.0,66.2,94,29.92,10.0,NNE,5.8,-,N/A,Thunderstorm,Overcast,20,2013-05-02 11:00:00
7:51 AM,69.8,66.2,88,29.94,6.0,East,6.9,-,0.03,Rain,Light Rain,100,2013-05-02 11:51:00
7:53 AM,69.1,66.9,93,29.94,4.0,ESE,6.9,-,0.04,Rain,Light Rain,120,2013-05-02 11:53:00
7:57 AM,69.8,68.0,94,29.94,2.0,East,4.6,-,0.00,Rain,Light Rain,100,2013-05-02 11:57:00
8:08 AM,68.0,68.0,100,29.94,2.0,ESE,6.9,-,0.13,Rain,Heavy Rain,110,2013-05-02 12:08:00
8:53 AM,69.1,68.0,96,29.95,2.0,East,6.9,-,0.16,,Overcast,90,2013-05-02 12:53:00
9:00 AM,68.0,68.0,100,29.96,10.0,Calm,Calm,-,N/A,,Overcast,0,2013-05-02 13:00:00
9:05 AM,68.0,68.0,100,29.97,2.0,SSW,4.6,-,0.00,Rain,Light Rain,200,2013-05-02 13:05:00
9:26 AM,68.0,68.0,100,29.96,2.0,ENE,11.5,-,0.34,Rain,Rain,70,2013-05-02 13:26:00
9:53 AM,70.0,69.1,97,29.95,2.0,ENE,9.2,-,0.48,Rain,Rain,70,2013-05-02 13:53:00
10:09 AM,71.6,69.8,94,29.94,4.0,East,10.4,-,0.06,Rain,Light Rain,80,2013-05-02 14:09:00
10:32 AM,71.6,71.6,100,29.94,8.0,East,6.9,-,0.07,Rain,Light Rain,100,2013-05-02 14:32:00
10:53 AM,73.0,71.1,93,29.94,10.0,ESE,9.2,-,0.08,Rain,Light Rain,110,2013-05-02 14:53:00
10:57 AM,73.4,71.6,94,29.95,10.0,ESE,11.5,-,0.00,Rain,Light Rain,110,2013-05-02 14:57:00
11:16 AM,71.6,69.8,94,29.95,10.0,ESE,10.4,18.4,0.00,,Mostly Cloudy,110,2013-05-02 15:16:00
11:53 AM,72.0,70.0,93,29.94,10.0,ESE,9.2,-,0.00,,Scattered Clouds,110,2013-05-02 15:53:00
12:53 PM,71.1,70.0,96,29.92,10.0,ENE,6.9,-,N/A,,Scattered Clouds,70,2013-05-02 16:53:00
1:00 PM,71.6,69.8,94,29.92,9.0,ESE,6.9,-,0.00,Rain,Light Rain,110,2013-05-02 17:00:00
1:18 PM,71.6,69.8,94,29.91,10.0,SSE,9.2,-,0.00,Rain,Light Rain,160,2013-05-02 17:18:00
1:53 PM,72.0,69.1,91,29.91,10.0,SSE,12.7,-,0.00,,Clear,150,2013-05-02 17:53:00
2:53 PM,73.0,70.0,90,29.89,10.0,SE,10.4,-,0.00,Rain,Light Rain,130,2013-05-02 18:53:00
3:53 PM,72.0,69.1,91,29.89,10.0,SSE,13.8,-,0.00,,Overcast,160,2013-05-02 19:53:00
4:53 PM,73.0,69.1,87,29.87,10.0,South,12.7,-,N/A,,Scattered Clouds,170,2013-05-02 20:53:00
5:53 PM,73.0,70.0,90,29.85,10.0,SSE,13.8,18.4,N/A,,Mostly Cloudy,150,2013-05-02 21:53:00
6:00 PM,73.4,69.8,88,29.85,10.0,SSE,12.7,-,N/A,,Scattered Clouds,160,2013-05-02 22:00:00
6:31 PM,73.4,69.8,88,29.84,10.0,SSE,13.8,18.4,N/A,,Mostly Cloudy,160,2013-05-02 22:31:00
6:39 PM,73.4,66.2,78,29.84,10.0,SSE,13.8,-,N/A,,Mostly Cloudy,150,2013-05-02 22:39:00
6:53 PM,73.0,66.9,81,29.84,10.0,SE,10.4,-,N/A,,Mostly Cloudy,140,2013-05-02 22:53:00
7:53 PM,73.0,68.0,84,29.84,10.0,SE,9.2,-,0.00,Rain,Light Rain,140,2013-05-02 23:53:00
8:53 PM,71.1,68.0,90,29.86,10.0,South,4.6,-,0.01,,Overcast,170,2013-05-03 00:53:00
9:53 PM,71.1,68.0,90,29.86,10.0,SE,8.1,-,0.01,,Partly Cloudy,130,2013-05-03 01:53:00
10:53 PM,72.0,66.9,84,29.86,10.0,ESE,11.5,-,0.00,,Overcast,110,2013-05-03 02:53:00
11:36 PM,73.4,69.8,88,29.85,10.0,ESE,17.3,21.9,N/A,,Mostly Cloudy,120,2013-05-03 03:36:00
11:44 PM,71.6,64.4,78,29.85,10.0,ESE,11.5,-,N/A,,Scattered Clouds,120,2013-05-03 03:44:00
11:53 PM,73.0,66.9,81,29.85,10.0,SE,12.7,-,N/A,,Partly Cloudy,130,2013-05-03 03:53:00